Time,TemperatureF,DewpointF,PressureIn,WindDirection,WindDirectionDegrees,WindSpeedMPH,WindSpeedGustMPH,Humidity,HourlyPrecipIn,Conditions,Clouds,dailyrainin,SoftwareType,DateUTC
2013-02-26 00:04:00,24.4,22.5,30.12,East,84,2.0,3.0,92,0.00,,,0.00,meteohub,2013-02-26 06:04:00,
2013-02-26 00:09:00,24.4,22.5,30.12,East,84,1.0,3.0,92,0.00,,,0.00,meteohub,2013-02-26 06:09:00,
2013-02-26 00:14:00,24.6,22.6,30.12,East,84,2.0,3.0,92,0.00,,,0.00,meteohub,2013-02-26 06:14:00,
2013-02-26 00:19:00,24.3,22.3,30.11,East,84,1.0,3.0,92,0.00,,,0.00,meteohub,2013-02-26 06:19:00,
2013-02-26 00:24:00,24.1,22.1,30.11,East,84,2.0,3.0,92,0.00,,,0.00,meteohub,2013-02-26 06:24:00,
2013-02-26 00:30:00,23.7,21.7,30.11,East,84,2.0,3.0,92,0.00,,,0.00,meteohub,2013-02-26 06:30:00,
2013-02-26 00:35:00,23.4,21.4,30.10,East,84,2.0,3.0,92,0.00,,,0.00,meteohub,2013-02-26 06:35:00,
2013-02-26 00:40:00,22.8,20.8,30.10,East,84,3.0,3.0,92,0.00,,,0.00,meteohub,2013-02-26 06:40:00,
2013-02-26 00:45:00,22.6,20.8,30.10,East,84,2.0,3.0,93,0.00,,,0.00,meteohub,2013-02-26 06:45:00,
2013-02-26 00:50:00,22.6,20.8,30.10,East,84,3.0,5.0,93,0.00,,,0.00,meteohub,2013-02-26 06:50:00,
2013-02-26 00:55:00,23.2,21.4,30.09,East,84,5.0,6.0,93,0.00,,,0.00,meteohub,2013-02-26 06:55:00,
2013-02-26 01:01:00,23.4,21.6,30.09,East,84,5.0,6.0,93,0.00,,,0.00,meteohub,2013-02-26 07:01:00,
2013-02-26 01:06:00,23.5,22.1,30.09,East,84,3.0,6.0,94,0.00,,,0.00,meteohub,2013-02-26 07:06:00,
2013-02-26 01:11:00,24.3,22.8,30.08,East,84,3.0,6.0,94,0.00,,,0.00,meteohub,2013-02-26 07:11:00,
2013-02-26 01:16:00,24.1,22.6,30.08,East,84,2.0,6.0,94,0.00,,,0.00,meteohub,2013-02-26 07:16:00,
2013-02-26 01:21:00,23.4,21.6,30.08,East,84,3.0,6.0,93,0.00,,,0.00,meteohub,2013-02-26 07:21:00,
2013-02-26 01:26:00,22.6,20.8,30.07,East,84,3.0,5.0,93,0.00,,,0.00,meteohub,2013-02-26 07:26:00,
2013-02-26 01:32:00,22.5,20.7,30.06,East,84,3.0,5.0,93,0.00,,,0.00,meteohub,2013-02-26 07:32:00,
2013-02-26 01:37:00,22.6,21.2,30.06,East,84,3.0,5.0,94,0.00,,,0.00,meteohub,2013-02-26 07:37:00,
2013-02-26 01:42:00,22.5,20.7,30.06,East,84,3.0,5.0,93,0.00,,,0.00,meteohub,2013-02-26 07:42:00,
2013-02-26 01:47:00,21.9,20.1,30.06,East,84,2.0,5.0,93,0.00,,,0.00,meteohub,2013-02-26 07:47:00,
2013-02-26 01:52:00,21.7,20.1,30.06,East,84,2.0,5.0,93,0.00,,,0.00,meteohub,2013-02-26 07:52:00,
2013-02-26 01:57:00,21.9,20.5,30.06,East,84,2.0,5.0,94,0.00,,,0.00,meteohub,2013-02-26 07:57:00,
2013-02-26 02:02:00,22.1,20.7,30.06,East,84,3.0,3.0,94,0.00,,,0.00,meteohub,2013-02-26 08:02:00,
2013-02-26 02:07:00,22.5,21.0,30.06,East,84,3.0,5.0,94,0.00,,,0.00,meteohub,2013-02-26 08:07:00,
2013-02-26 02:12:00,22.5,21.0,30.06,East,84,3.0,5.0,94,0.00,,,0.00,meteohub,2013-02-26 08:12:00,
2013-02-26 02:17:00,22.5,21.0,30.06,East,84,3.0,5.0,94,0.00,,,0.00,meteohub,2013-02-26 08:17:00,
2013-02-26 02:22:00,22.5,21.0,30.06,East,84,3.0,5.0,94,0.00,,,0.00,meteohub,2013-02-26 08:22:00,
2013-02-26 02:27:00,22.5,21.0,30.06,East,84,3.0,5.0,94,0.00,,,0.00,meteohub,2013-02-26 08:27:00,
2013-02-26 02:32:00,22.3,20.8,30.06,East,84,3.0,5.0,94,0.00,,,0.00,meteohub,2013-02-26 08:32:00,
2013-02-26 02:37:00,22.3,20.8,30.05,East,84,3.0,5.0,94,0.00,,,0.00,meteohub,2013-02-26 08:37:00,
2013-02-26 02:42:00,22.6,21.2,30.05,East,84,3.0,6.0,94,0.00,,,0.00,meteohub,2013-02-26 08:42:00,
2013-02-26 02:47:00,23.2,21.7,30.05,East,84,2.0,6.0,94,0.00,,,0.00,meteohub,2013-02-26 08:47:00,
2013-02-26 02:52:00,23.2,21.7,30.04,East,84,2.0,6.0,94,0.00,,,0.00,meteohub,2013-02-26 08:52:00,
2013-02-26 02:57:00,22.8,21.4,30.04,East,84,5.0,6.0,94,0.00,,,0.00,meteohub,2013-02-26 08:57:00,
2013-02-26 03:02:00,22.8,21.4,30.04,East,84,5.0,5.0,94,0.00,,,0.00,meteohub,2013-02-26 09:02:00,
2013-02-26 03:07:00,23.4,21.9,30.04,East,84,3.0,5.0,94,0.00,,,0.00,meteohub,2013-02-26 09:07:00,
2013-02-26 03:12:00,23.2,21.7,30.04,East,84,1.0,5.0,94,0.00,,,0.00,meteohub,2013-02-26 09:12:00,
2013-02-26 03:17:00,22.6,21.2,30.03,East,84,2.0,5.0,94,0.00,,,0.00,meteohub,2013-02-26 09:17:00,
2013-02-26 03:22:00,22.5,21.0,30.03,East,84,0.0,5.0,94,0.00,,,0.00,meteohub,2013-02-26 09:22:00,
2013-02-26 03:27:00,22.5,21.0,30.03,East,84,2.0,2.0,94,0.00,,,0.00,meteohub,2013-02-26 09:27:00,
2013-02-26 03:32:00,21.9,20.5,30.03,East,84,1.0,3.0,94,0.00,,,0.00,meteohub,2013-02-26 09:32:00,
2013-02-26 03:37:00,21.7,20.3,30.03,East,84,3.0,3.0,94,0.00,,,0.00,meteohub,2013-02-26 09:37:00,
2013-02-26 03:42:00,22.3,20.8,30.03,East,84,3.0,5.0,94,0.00,,,0.00,meteohub,2013-02-26 09:42:00,
2013-02-26 03:47:00,22.6,21.2,30.02,ENE,72,5.0,6.0,94,0.00,,,0.00,meteohub,2013-02-26 09:47:00,
2013-02-26 03:52:00,23.4,22.1,30.02,ENE,65,4.0,7.0,95,0.00,,,0.00,meteohub,2013-02-26 09:52:00,
2013-02-26 03:57:00,23.2,21.7,30.00,ENE,61,5.0,7.0,94,0.00,,,0.00,meteohub,2013-02-26 09:57:00,
2013-02-26 04:02:00,23.4,21.9,30.01,ENE,59,3.0,7.0,94,0.00,,,0.00,meteohub,2013-02-26 10:02:00,
2013-02-26 04:07:00,23.4,21.9,30.01,NE,56,5.0,7.0,94,0.00,,,0.00,meteohub,2013-02-26 10:07:00,
2013-02-26 04:12:00,24.1,22.8,30.01,NE,56,5.0,7.0,95,0.00,,,0.00,meteohub,2013-02-26 10:12:00,
2013-02-26 04:17:00,24.8,23.5,30.01,NE,40,5.0,8.0,95,0.00,,,0.00,meteohub,2013-02-26 10:17:00,
2013-02-26 04:22:00,25.3,24.1,30.01,NE,44,7.0,8.0,95,0.00,,,0.00,meteohub,2013-02-26 10:22:00,
2013-02-26 04:27:00,25.5,24.1,30.01,NE,42,7.0,8.0,94,0.00,,,0.00,meteohub,2013-02-26 10:27:00,
2013-02-26 04:32:00,26.1,24.8,30.00,NNE,32,6.0,11.0,95,0.00,,,0.00,meteohub,2013-02-26 10:32:00,
2013-02-26 04:37:00,26.4,25.2,30.00,NE,36,9.0,11.0,95,0.00,,,0.00,meteohub,2013-02-26 10:37:00,
2013-02-26 04:42:00,26.8,25.3,30.00,NE,41,8.0,12.0,94,0.00,,,0.00,meteohub,2013-02-26 10:42:00,
2013-02-26 04:47:00,26.6,25.2,30.00,NE,45,7.0,12.0,94,0.00,,,0.00,meteohub,2013-02-26 10:47:00,
2013-02-26 04:52:00,26.8,25.3,30.00,NNE,28,6.0,12.0,94,0.00,,,0.00,meteohub,2013-02-26 10:52:00,
2013-02-26 04:57:00,26.8,25.0,30.00,NE,34,7.0,10.0,93,0.00,,,0.00,meteohub,2013-02-26 10:57:00,
2013-02-26 05:02:00,26.8,25.0,29.99,NE,38,7.0,10.0,93,0.00,,,0.00,meteohub,2013-02-26 11:02:00,
2013-02-26 05:07:00,26.8,25.0,29.99,NE,42,7.0,11.0,93,0.00,,,0.00,meteohub,2013-02-26 11:07:00,
2013-02-26 05:12:00,26.8,25.0,29.99,NE,40,7.0,11.0,93,0.00,,,0.00,meteohub,2013-02-26 11:12:00,
2013-02-26 05:17:00,26.8,25.0,29.99,NNE,32,8.0,11.0,93,0.00,,,0.00,meteohub,2013-02-26 11:17:00,
2013-02-26 05:22:00,27.0,25.2,29.99,NNE,31,8.0,10.0,93,0.00,,,0.00,meteohub,2013-02-26 11:22:00,
2013-02-26 05:27:00,27.0,25.2,29.98,NNE,27,9.0,11.0,93,0.00,,,0.00,meteohub,2013-02-26 11:27:00,
2013-02-26 05:32:00,27.1,25.3,29.98,NNE,26,8.0,11.0,93,0.00,,,0.00,meteohub,2013-02-26 11:32:00,
2013-02-26 05:37:00,27.3,25.3,29.98,NNE,28,11.0,12.0,92,0.00,,,0.00,meteohub,2013-02-26 11:37:00,
2013-02-26 05:42:00,27.3,25.3,29.98,NNE,20,10.0,12.0,92,0.00,,,0.00,meteohub,2013-02-26 11:42:00,
2013-02-26 05:47:00,27.7,25.7,29.98,NNE,31,7.0,12.0,92,0.00,,,0.00,meteohub,2013-02-26 11:47:00,
2013-02-26 05:52:00,27.7,25.7,29.97,NE,36,10.0,12.0,92,0.00,,,0.00,meteohub,2013-02-26 11:52:00,
2013-02-26 05:57:00,28.0,26.1,29.97,NE,40,11.0,13.0,92,0.00,,,0.00,meteohub,2013-02-26 11:57:00,
2013-02-26 06:03:00,28.2,25.9,29.97,NE,40,11.0,13.0,91,0.00,,,0.00,meteohub,2013-02-26 12:03:00,
2013-02-26 06:08:00,28.6,26.2,29.97,NNE,32,10.0,14.0,91,0.00,,,0.00,meteohub,2013-02-26 12:08:00,
2013-02-26 06:13:00,28.6,26.2,29.97,NE,45,9.0,17.0,91,0.00,,,0.00,meteohub,2013-02-26 12:13:00,
2013-02-26 06:18:00,28.6,26.1,29.97,NE,46,9.0,17.0,90,0.00,,,0.00,meteohub,2013-02-26 12:18:00,
2013-02-26 06:23:00,28.6,26.1,29.97,NNE,29,11.0,15.0,90,0.00,,,0.00,meteohub,2013-02-26 12:23:00,
2013-02-26 06:28:00,28.8,26.2,29.96,NE,44,12.0,15.0,90,0.00,,,0.00,meteohub,2013-02-26 12:28:00,
2013-02-26 06:34:00,28.8,26.2,29.96,NE,38,9.0,15.0,90,0.00,,,0.00,meteohub,2013-02-26 12:34:00,
2013-02-26 06:39:00,28.8,26.2,29.96,NE,40,9.0,14.0,90,0.00,,,0.00,meteohub,2013-02-26 12:39:00,
2013-02-26 06:44:00,28.8,26.2,29.96,NE,42,8.0,13.0,90,0.00,,,0.00,meteohub,2013-02-26 12:44:00,
2013-02-26 06:49:00,28.6,26.1,29.96,NE,37,10.0,13.0,90,0.00,,,0.00,meteohub,2013-02-26 12:49:00,
2013-02-26 06:54:00,28.6,26.1,29.96,NE,39,11.0,13.0,90,0.00,,,0.00,meteohub,2013-02-26 12:54:00,
2013-02-26 06:59:00,28.6,26.2,29.95,NNE,31,10.0,14.0,91,0.00,,,0.00,meteohub,2013-02-26 12:59:00,
2013-02-26 07:05:00,28.8,26.4,29.95,NE,42,12.0,14.0,91,0.00,,,0.00,meteohub,2013-02-26 13:05:00,
2013-02-26 07:10:00,28.8,26.4,29.95,NE,36,11.0,14.0,91,0.00,,,0.00,meteohub,2013-02-26 13:10:00,
2013-02-26 07:15:00,28.9,26.6,29.95,NE,36,12.0,14.0,91,0.00,,,0.00,meteohub,2013-02-26 13:15:00,
2013-02-26 07:20:00,28.9,26.6,29.95,NE,37,10.0,15.0,91,0.00,,,0.00,meteohub,2013-02-26 13:20:00,
2013-02-26 07:25:00,29.1,26.8,29.95,NE,40,10.0,15.0,91,0.00,,,0.00,meteohub,2013-02-26 13:25:00,
2013-02-26 07:30:00,29.3,27.0,29.95,NE,38,9.0,14.0,91,0.00,,,0.00,meteohub,2013-02-26 13:30:00,
2013-02-26 07:36:00,29.5,27.1,29.95,NE,45,10.0,14.0,91,0.00,,,0.00,meteohub,2013-02-26 13:36:00,
2013-02-26 07:41:00,29.7,27.3,29.95,NE,53,11.0,14.0,91,0.00,,,0.00,meteohub,2013-02-26 13:41:00,
2013-02-26 07:46:00,29.7,27.1,29.96,NE,49,9.0,14.0,90,0.00,,,0.00,meteohub,2013-02-26 13:46:00,
2013-02-26 07:51:00,29.8,27.3,29.96,NE,48,9.0,13.0,90,0.00,,,0.00,meteohub,2013-02-26 13:51:00,
2013-02-26 07:56:00,30.0,27.5,29.96,NE,44,12.0,13.0,90,0.00,,,0.00,meteohub,2013-02-26 13:56:00,
2013-02-26 08:02:00,30.2,27.7,29.96,NE,38,9.0,13.0,90,0.00,,,0.00,meteohub,2013-02-26 14:02:00,
2013-02-26 08:07:00,30.4,27.5,29.95,NE,39,12.0,14.0,89,0.00,,,0.00,meteohub,2013-02-26 14:07:00,
2013-02-26 08:12:00,30.6,27.7,29.95,NE,41,13.0,14.0,89,0.00,,,0.00,meteohub,2013-02-26 14:12:00,
2013-02-26 08:17:00,30.7,27.9,29.95,NE,46,12.0,15.0,89,0.00,,,0.00,meteohub,2013-02-26 14:17:00,
2013-02-26 08:22:00,30.7,27.9,29.95,NE,37,11.0,15.0,89,0.00,,,0.00,meteohub,2013-02-26 14:22:00,
2013-02-26 08:27:00,30.9,27.9,29.94,NE,36,11.0,15.0,88,0.00,,,0.00,meteohub,2013-02-26 14:27:00,
2013-02-26 08:32:00,30.9,27.9,29.94,NE,38,13.0,16.0,88,0.00,,,0.00,meteohub,2013-02-26 14:32:00,
2013-02-26 08:37:00,31.3,28.2,29.94,NE,40,12.0,17.0,88,0.00,,,0.00,meteohub,2013-02-26 14:37:00,
2013-02-26 08:42:00,31.3,27.9,29.94,NE,54,17.0,17.0,87,0.00,,,0.00,meteohub,2013-02-26 14:42:00,
2013-02-26 08:47:00,31.5,28.0,29.94,NE,53,17.0,19.0,87,0.00,,,0.00,meteohub,2013-02-26 14:47:00,
2013-02-26 08:52:00,31.5,28.0,29.94,NE,53,13.0,21.0,87,0.00,,,0.00,meteohub,2013-02-26 14:52:00,
2013-02-26 08:57:00,31.5,28.0,29.93,NE,52,13.0,21.0,87,0.00,,,0.00,meteohub,2013-02-26 14:57:00,
2013-02-26 09:02:00,31.5,27.7,29.94,NE,52,17.0,22.0,86,0.00,,,0.00,meteohub,2013-02-26 15:02:00,
2013-02-26 09:07:00,31.5,27.7,29.94,NE,55,16.0,22.0,86,0.00,,,0.00,meteohub,2013-02-26 15:07:00,
2013-02-26 09:12:00,31.6,27.9,29.93,ENE,60,14.0,22.0,86,0.00,,,0.00,meteohub,2013-02-26 15:12:00,
2013-02-26 09:17:00,31.6,27.9,29.93,NE,42,11.0,21.0,86,0.00,,,0.00,meteohub,2013-02-26 15:17:00,
2013-02-26 09:22:00,31.5,27.7,29.92,NE,49,18.0,20.0,86,0.00,,,0.00,meteohub,2013-02-26 15:22:00,
2013-02-26 09:27:00,31.6,27.9,29.91,NE,40,14.0,20.0,86,0.00,,,0.00,meteohub,2013-02-26 15:27:00,
2013-02-26 09:32:00,31.6,27.7,29.91,NE,46,13.0,23.0,85,0.00,,,0.00,meteohub,2013-02-26 15:32:00,
2013-02-26 09:37:00,31.6,27.7,29.91,NNE,32,13.0,23.0,85,0.00,,,0.00,meteohub,2013-02-26 15:37:00,
2013-02-26 09:42:00,31.6,27.7,29.91,NE,49,13.0,23.0,85,0.00,,,0.00,meteohub,2013-02-26 15:42:00,
2013-02-26 09:47:00,31.6,27.7,29.90,NE,38,12.0,22.0,85,0.00,,,0.00,meteohub,2013-02-26 15:47:00,
2013-02-26 09:52:00,31.6,27.3,29.90,NE,52,16.0,22.0,84,0.00,,,0.00,meteohub,2013-02-26 15:52:00,
2013-02-26 09:57:00,31.6,27.3,29.90,NE,49,14.0,24.0,84,0.00,,,0.00,meteohub,2013-02-26 15:57:00,
2013-02-26 10:02:00,31.8,27.5,29.89,NE,51,16.0,27.0,84,0.00,,,0.00,meteohub,2013-02-26 16:02:00,
2013-02-26 10:07:00,31.8,27.5,29.89,NE,49,18.0,27.0,84,0.00,,,0.00,meteohub,2013-02-26 16:07:00,
2013-02-26 10:12:00,31.8,27.3,29.88,ENE,61,17.0,27.0,83,0.00,,,0.00,meteohub,2013-02-26 16:12:00,
2013-02-26 10:17:00,32.0,27.5,29.88,NE,55,18.0,24.0,83,0.00,,,0.00,meteohub,2013-02-26 16:17:00,
2013-02-26 10:22:00,31.8,27.3,29.87,NE,43,21.0,24.0,83,0.00,,,0.00,meteohub,2013-02-26 16:22:00,
2013-02-26 10:27:00,31.8,27.0,29.86,NE,34,16.0,27.0,82,0.00,,,0.00,meteohub,2013-02-26 16:27:00,
2013-02-26 10:32:00,31.8,27.0,29.86,NE,39,19.0,27.0,82,0.00,,,0.00,meteohub,2013-02-26 16:32:00,
2013-02-26 10:37:00,32.0,27.1,29.86,NNE,28,21.0,27.0,82,0.00,,,0.00,meteohub,2013-02-26 16:37:00,
2013-02-26 10:42:00,32.2,27.7,29.86,NE,48,15.0,26.0,83,0.00,,,0.00,meteohub,2013-02-26 16:42:00,
2013-02-26 10:47:00,32.2,27.7,29.86,NNE,32,21.0,25.0,83,0.00,,,0.00,meteohub,2013-02-26 16:47:00,
2013-02-26 10:52:00,32.0,27.1,29.86,NNE,28,21.0,24.0,82,0.00,,,0.00,meteohub,2013-02-26 16:52:00,
2013-02-26 10:57:00,32.2,27.3,29.86,NNE,25,16.0,26.0,82,0.00,,,0.00,meteohub,2013-02-26 16:57:00,
2013-02-26 11:02:00,32.2,27.3,29.86,NE,44,17.0,26.0,82,0.00,,,0.00,meteohub,2013-02-26 17:02:00,
2013-02-26 11:07:00,32.2,27.0,29.86,NE,34,18.0,26.0,81,0.00,,,0.00,meteohub,2013-02-26 17:07:00,
2013-02-26 11:12:00,32.0,26.8,29.86,NE,34,22.0,25.0,81,0.00,,,0.00,meteohub,2013-02-26 17:12:00,
2013-02-26 11:17:00,31.8,26.6,29.85,NE,40,13.0,28.0,81,0.00,,,0.00,meteohub,2013-02-26 17:17:00,
2013-02-26 11:22:00,31.8,26.4,29.85,NNE,18,19.0,28.0,80,0.00,,,0.00,meteohub,2013-02-26 17:22:00,
2013-02-26 11:28:00,31.8,26.6,29.85,NE,53,18.0,30.0,81,0.00,,,0.00,meteohub,2013-02-26 17:28:00,
2013-02-26 11:33:00,32.0,26.8,29.84,NE,39,23.0,30.0,81,0.00,,,0.00,meteohub,2013-02-26 17:33:00,
2013-02-26 11:38:00,32.2,26.8,29.84,NE,44,22.0,30.0,80,0.00,,,0.00,meteohub,2013-02-26 17:38:00,
2013-02-26 11:43:00,32.2,26.8,29.84,NE,42,15.0,26.0,80,0.00,,,0.00,meteohub,2013-02-26 17:43:00,
2013-02-26 11:48:00,32.4,27.0,29.84,NE,40,14.0,27.0,80,0.00,,,0.00,meteohub,2013-02-26 17:48:00,
2013-02-26 11:53:00,32.5,27.1,29.84,NNE,30,18.0,27.0,80,0.00,,,0.00,meteohub,2013-02-26 17:53:00,
2013-02-26 11:59:00,32.5,26.8,29.83,NNE,23,14.0,24.0,79,0.00,,,0.00,meteohub,2013-02-26 17:59:00,
2013-02-26 12:04:00,32.5,26.8,29.83,NNE,32,17.0,25.0,79,0.00,,,0.00,meteohub,2013-02-26 18:04:00,
2013-02-26 12:09:00,32.5,26.8,29.83,NNE,22,17.0,25.0,79,0.00,,,0.00,meteohub,2013-02-26 18:09:00,
2013-02-26 12:14:00,32.5,26.8,29.83,NE,49,18.0,25.0,79,0.00,,,0.00,meteohub,2013-02-26 18:14:00,
2013-02-26 12:19:00,32.7,27.3,29.83,NNE,31,14.0,25.0,80,0.00,,,0.00,meteohub,2013-02-26 18:19:00,
2013-02-26 12:24:00,32.5,27.1,29.82,NNE,30,24.0,25.0,80,0.00,,,0.00,meteohub,2013-02-26 18:24:00,
2013-02-26 12:30:00,32.4,27.0,29.82,NNE,27,16.0,27.0,80,0.00,,,0.00,meteohub,2013-02-26 18:30:00,
2013-02-26 12:35:00,32.5,27.1,29.81,NNE,22,20.0,27.0,80,0.00,,,0.00,meteohub,2013-02-26 18:35:00,
2013-02-26 12:40:00,32.5,27.1,29.81,NNE,28,24.0,27.0,80,0.00,,,0.00,meteohub,2013-02-26 18:40:00,
2013-02-26 12:45:00,32.4,27.1,29.81,North,11,12.0,29.0,81,0.00,,,0.00,meteohub,2013-02-26 18:45:00,
2013-02-26 12:50:00,32.2,27.0,29.80,NNE,24,15.0,29.0,81,0.00,,,0.00,meteohub,2013-02-26 18:50:00,
2013-02-26 12:56:00,32.2,27.3,29.80,NNE,31,20.0,29.0,82,0.00,,,0.00,meteohub,2013-02-26 18:56:00,
2013-02-26 13:01:00,32.2,27.3,29.80,NNE,22,14.0,29.0,82,0.00,,,0.00,meteohub,2013-02-26 19:01:00,
2013-02-26 13:06:00,32.0,27.1,29.80,NNE,22,22.0,29.0,82,0.00,,,0.00,meteohub,2013-02-26 19:06:00,
2013-02-26 13:11:00,32.0,27.1,29.80,NNE,28,21.0,28.0,82,0.00,,,0.00,meteohub,2013-02-26 19:11:00,
2013-02-26 13:16:00,32.2,27.3,29.80,NNE,30,21.0,33.0,82,0.00,,,0.00,meteohub,2013-02-26 19:16:00,
2013-02-26 13:21:00,32.2,27.7,29.79,NNE,25,13.0,33.0,83,0.00,,,0.00,meteohub,2013-02-26 19:21:00,
2013-02-26 13:27:00,32.0,27.7,29.79,NNE,29,13.0,33.0,84,0.00,,,0.00,meteohub,2013-02-26 19:27:00,
2013-02-26 13:32:00,32.0,27.7,29.79,NNE,28,24.0,31.0,84,0.00,,,0.00,meteohub,2013-02-26 19:32:00,
2013-02-26 13:37:00,31.8,27.3,29.79,NNE,24,20.0,31.0,83,0.00,,,0.00,meteohub,2013-02-26 19:37:00,
2013-02-26 13:42:00,31.8,27.3,29.79,NNE,29,23.0,31.0,83,0.00,,,0.00,meteohub,2013-02-26 19:42:00,
2013-02-26 13:47:00,31.8,27.5,29.79,NE,34,19.0,32.0,84,0.00,,,0.00,meteohub,2013-02-26 19:47:00,
2013-02-26 13:53:00,31.8,27.5,29.80,NNE,28,16.0,32.0,84,0.00,,,0.00,meteohub,2013-02-26 19:53:00,
2013-02-26 13:58:00,31.6,27.3,29.79,NE,46,21.0,32.0,84,0.00,,,0.00,meteohub,2013-02-26 19:58:00,
2013-02-26 14:03:00,31.6,27.3,29.79,NNE,28,20.0,27.0,84,0.00,,,0.00,meteohub,2013-02-26 20:03:00,
2013-02-26 14:08:00,31.8,27.3,29.79,NNE,25,17.0,27.0,83,0.00,,,0.00,meteohub,2013-02-26 20:08:00,
2013-02-26 14:13:00,31.8,27.3,29.79,North,11,16.0,28.0,83,0.00,,,0.00,meteohub,2013-02-26 20:13:00,
2013-02-26 14:18:00,32.0,27.5,29.78,NE,35,21.0,28.0,83,0.00,,,0.00,meteohub,2013-02-26 20:18:00,
2013-02-26 14:24:00,31.8,27.3,29.79,NNE,25,18.0,28.0,83,0.00,,,0.00,meteohub,2013-02-26 20:24:00,
2013-02-26 14:29:00,32.0,27.5,29.78,NNE,17,24.0,26.0,83,0.00,,,0.00,meteohub,2013-02-26 20:29:00,
2013-02-26 14:34:00,32.0,27.5,29.79,NNE,29,19.0,28.0,83,0.00,,,0.00,meteohub,2013-02-26 20:34:00,
2013-02-26 14:39:00,32.2,27.7,29.78,North,0,21.0,32.0,83,0.00,,,0.00,meteohub,2013-02-26 20:39:00,
2013-02-26 14:44:00,32.2,27.7,29.78,NNE,31,16.0,32.0,83,0.00,,,0.00,meteohub,2013-02-26 20:44:00,
2013-02-26 14:50:00,32.2,27.7,29.78,NNE,27,25.0,29.0,83,0.00,,,0.00,meteohub,2013-02-26 20:50:00,
2013-02-26 14:55:00,32.2,27.9,29.78,NNE,30,18.0,30.0,84,0.00,,,0.00,meteohub,2013-02-26 20:55:00,
2013-02-26 15:00:00,32.2,27.9,29.78,NNE,30,18.0,30.0,84,0.00,,,0.00,meteohub,2013-02-26 21:00:00,
2013-02-26 15:05:00,32.2,27.9,29.77,North,-999,-999.0,29.0,84,0.00,,,0.00,meteohub,2013-02-26 21:05:00,
2013-02-26 15:10:00,32.2,27.9,29.77,NNE,23,20.0,29.0,84,0.00,,,0.00,meteohub,2013-02-26 21:10:00,
2013-02-26 15:16:00,32.2,27.9,29.77,NNE,24,17.0,29.0,84,0.00,,,0.00,meteohub,2013-02-26 21:16:00,
2013-02-26 15:21:00,32.2,28.2,29.77,NNE,14,19.0,29.0,85,0.00,,,0.00,meteohub,2013-02-26 21:21:00,
2013-02-26 15:26:00,32.2,28.2,29.77,NNE,28,15.0,25.0,85,0.00,,,0.00,meteohub,2013-02-26 21:26:00,
2013-02-26 15:31:00,32.2,28.2,29.77,NNE,20,13.0,25.0,85,0.00,,,0.00,meteohub,2013-02-26 21:31:00,
2013-02-26 15:36:00,32.2,28.4,29.77,NNE,21,16.0,27.0,86,0.00,,,0.00,meteohub,2013-02-26 21:36:00,
2013-02-26 15:41:00,32.2,28.4,29.77,North,5,17.0,27.0,86,0.00,,,0.00,meteohub,2013-02-26 21:41:00,
2013-02-26 15:47:00,32.2,28.4,29.77,NNE,31,16.0,27.0,86,0.00,,,0.00,meteohub,2013-02-26 21:47:00,
2013-02-26 15:52:00,32.2,28.4,29.77,NNE,22,21.0,27.0,86,0.00,,,0.00,meteohub,2013-02-26 21:52:00,
2013-02-26 15:57:00,32.2,28.4,29.77,NNE,32,15.0,28.0,86,0.01,,,0.01,meteohub,2013-02-26 21:57:00,
2013-02-26 16:02:00,32.2,28.8,29.78,NNE,24,19.0,28.0,87,0.01,,,0.01,meteohub,2013-02-26 22:02:00,
2013-02-26 16:07:00,32.2,28.8,29.78,NNE,16,20.0,28.0,87,0.01,,,0.01,meteohub,2013-02-26 22:07:00,
2013-02-26 16:12:00,32.2,28.8,29.77,NE,36,19.0,27.0,87,0.01,,,0.01,meteohub,2013-02-26 22:12:00,
2013-02-26 16:17:00,32.2,28.8,29.78,NNE,16,16.0,27.0,87,0.01,,,0.01,meteohub,2013-02-26 22:17:00,
2013-02-26 16:22:00,32.2,28.8,29.77,NNE,32,18.0,28.0,87,0.01,,,0.01,meteohub,2013-02-26 22:22:00,
2013-02-26 16:27:00,32.2,28.8,29.77,NNE,15,18.0,28.0,87,0.01,,,0.01,meteohub,2013-02-26 22:27:00,
2013-02-26 16:32:00,32.2,28.8,29.77,NE,36,18.0,28.0,87,0.01,,,0.01,meteohub,2013-02-26 22:32:00,
2013-02-26 16:37:00,32.2,28.4,29.77,NNE,22,16.0,28.0,86,0.01,,,0.01,meteohub,2013-02-26 22:37:00,
2013-02-26 16:42:00,32.4,28.6,29.76,NE,38,29.0,29.0,86,0.01,,,0.01,meteohub,2013-02-26 22:42:00,
2013-02-26 16:47:00,32.4,28.6,29.76,NE,34,15.0,30.0,86,0.01,,,0.01,meteohub,2013-02-26 22:47:00,
2013-02-26 16:52:00,32.4,28.6,29.76,NNE,24,14.0,30.0,86,0.01,,,0.01,meteohub,2013-02-26 22:52:00,
2013-02-26 16:57:00,32.4,28.4,29.76,NNE,32,18.0,30.0,85,0.00,,,0.01,meteohub,2013-02-26 22:57:00,
2013-02-26 17:02:00,32.4,28.6,29.76,NNE,18,15.0,28.0,86,0.00,,,0.01,meteohub,2013-02-26 23:02:00,
2013-02-26 17:07:00,32.4,28.4,29.76,NNE,32,16.0,30.0,85,0.00,,,0.01,meteohub,2013-02-26 23:07:00,
2013-02-26 17:12:00,32.4,28.6,29.75,NNE,32,13.0,30.0,86,0.00,,,0.01,meteohub,2013-02-26 23:12:00,
2013-02-26 17:17:00,32.4,28.6,29.75,NNE,22,15.0,30.0,86,0.00,,,0.01,meteohub,2013-02-26 23:17:00,
2013-02-26 17:22:00,32.2,28.4,29.75,NNE,24,20.0,30.0,86,0.00,,,0.01,meteohub,2013-02-26 23:22:00,
2013-02-26 17:27:00,32.2,28.4,29.75,North,11,21.0,26.0,86,0.00,,,0.01,meteohub,2013-02-26 23:27:00,
2013-02-26 17:32:00,32.2,28.2,29.75,NNE,22,20.0,29.0,85,0.00,,,0.01,meteohub,2013-02-26 23:32:00,
2013-02-26 17:37:00,32.2,28.2,29.75,NNE,12,15.0,29.0,85,0.00,,,0.01,meteohub,2013-02-26 23:37:00,
2013-02-26 17:42:00,32.2,28.2,29.75,NNE,22,25.0,29.0,85,0.00,,,0.01,meteohub,2013-02-26 23:42:00,
2013-02-26 17:47:00,32.2,28.2,29.75,NNE,22,21.0,29.0,85,0.00,,,0.01,meteohub,2013-02-26 23:47:00,
2013-02-26 17:52:00,32.2,28.2,29.75,NNE,22,25.0,32.0,85,0.00,,,0.01,meteohub,2013-02-26 23:52:00,
2013-02-26 17:57:00,32.2,28.2,29.75,NNE,19,24.0,32.0,85,0.00,,,0.01,meteohub,2013-02-26 23:57:00,
2013-02-26 18:02:00,31.8,28.0,29.75,NNE,18,20.0,32.0,86,0.00,,,0.01,meteohub,2013-02-27 00:02:00,
2013-02-26 18:07:00,31.6,28.6,29.75,NNE,18,27.0,32.0,88,0.00,,,0.01,meteohub,2013-02-27 00:07:00,
2013-02-26 18:12:00,31.3,28.8,29.75,NNE,26,19.0,29.0,90,0.00,,,0.01,meteohub,2013-02-27 00:12:00,
2013-02-26 18:17:00,30.9,28.6,29.75,North,355,20.0,29.0,91,0.00,,,0.01,meteohub,2013-02-27 00:17:00,
2013-02-26 18:22:00,30.7,28.9,29.75,NNE,26,26.0,32.0,93,0.00,,,0.01,meteohub,2013-02-27 00:22:00,
2013-02-26 18:27:00,30.6,28.8,29.75,North,5,20.0,32.0,93,0.00,,,0.01,meteohub,2013-02-27 00:27:00,
2013-02-26 18:32:00,30.6,29.1,29.75,NNE,24,20.0,32.0,94,0.00,,,0.01,meteohub,2013-02-27 00:32:00,
2013-02-26 18:37:00,30.6,29.1,29.75,NNE,25,21.0,29.0,94,0.00,,,0.01,meteohub,2013-02-27 00:37:00,
2013-02-26 18:42:00,30.6,29.1,29.75,NNE,19,13.0,29.0,94,0.00,,,0.01,meteohub,2013-02-27 00:42:00,
2013-02-26 18:47:00,30.6,29.1,29.75,NNE,17,23.0,30.0,94,0.00,,,0.01,meteohub,2013-02-27 00:47:00,
2013-02-26 18:52:00,30.6,29.1,29.75,NNE,23,18.0,30.0,94,0.00,,,0.01,meteohub,2013-02-27 00:52:00,
2013-02-26 18:57:00,30.4,28.9,29.75,NNE,12,20.0,26.0,94,0.00,,,0.01,meteohub,2013-02-27 00:57:00,
2013-02-26 19:02:00,30.4,28.9,29.75,NE,40,24.0,30.0,94,0.00,,,0.01,meteohub,2013-02-27 01:02:00,
2013-02-26 19:07:00,30.4,29.1,29.75,NNE,33,19.0,30.0,95,0.00,,,0.01,meteohub,2013-02-27 01:07:00,
2013-02-26 19:12:00,30.4,29.1,29.75,NNE,18,17.0,30.0,95,0.00,,,0.01,meteohub,2013-02-27 01:12:00,
2013-02-26 19:17:00,30.4,29.1,29.75,NNE,15,25.0,27.0,95,0.00,,,0.01,meteohub,2013-02-27 01:17:00,
2013-02-26 19:22:00,30.4,29.1,29.75,NNE,26,18.0,30.0,95,0.00,,,0.01,meteohub,2013-02-27 01:22:00,
2013-02-26 19:27:00,30.2,28.9,29.75,NNE,30,14.0,30.0,95,0.00,,,0.01,meteohub,2013-02-27 01:27:00,
2013-02-26 19:32:00,30.2,28.9,29.75,NNE,27,24.0,30.0,95,0.00,,,0.01,meteohub,2013-02-27 01:32:00,
2013-02-26 19:37:00,30.0,28.8,29.75,NNE,25,17.0,32.0,95,0.00,,,0.01,meteohub,2013-02-27 01:37:00,
2013-02-26 19:42:00,30.0,28.8,29.75,NNE,26,18.0,32.0,95,0.00,,,0.01,meteohub,2013-02-27 01:42:00,
2013-02-26 19:47:00,30.0,28.8,29.75,NNE,17,20.0,32.0,95,0.00,,,0.01,meteohub,2013-02-27 01:47:00,
2013-02-26 19:52:00,30.0,28.8,29.75,NNE,22,14.0,29.0,95,0.00,,,0.01,meteohub,2013-02-27 01:52:00,
2013-02-26 19:57:00,30.0,28.8,29.75,NE,34,14.0,27.0,95,0.00,,,0.01,meteohub,2013-02-27 01:57:00,
2013-02-26 20:02:00,30.0,28.8,29.75,NNE,25,18.0,26.0,95,0.00,,,0.01,meteohub,2013-02-27 02:02:00,
2013-02-26 20:07:00,30.0,28.8,29.75,NNE,26,14.0,26.0,95,0.00,,,0.01,meteohub,2013-02-27 02:07:00,
2013-02-26 20:13:00,30.0,28.8,29.74,NNE,17,18.0,27.0,95,0.00,,,0.01,meteohub,2013-02-27 02:13:00,
2013-02-26 20:18:00,30.0,28.8,29.74,NNE,29,17.0,27.0,95,0.00,,,0.01,meteohub,2013-02-27 02:18:00,
2013-02-26 20:23:00,30.0,28.8,29.74,NE,39,18.0,27.0,95,0.00,,,0.01,meteohub,2013-02-27 02:23:00,
2013-02-26 20:29:00,30.0,28.8,29.74,NNE,17,22.0,27.0,95,0.00,,,0.01,meteohub,2013-02-27 02:29:00,
2013-02-26 20:34:00,30.0,28.8,29.74,NNE,24,24.0,24.0,95,0.00,,,0.01,meteohub,2013-02-27 02:34:00,
2013-02-26 20:39:00,30.0,28.8,29.75,NE,38,16.0,29.0,95,0.00,,,0.01,meteohub,2013-02-27 02:39:00,
2013-02-26 20:44:00,30.0,28.8,29.75,NNE,19,21.0,29.0,95,0.00,,,0.01,meteohub,2013-02-27 02:44:00,
2013-02-26 20:49:00,30.0,28.8,29.75,NNE,21,20.0,29.0,95,0.00,,,0.01,meteohub,2013-02-27 02:49:00,
2013-02-26 20:55:00,30.0,28.8,29.74,NNE,19,23.0,29.0,95,0.00,,,0.01,meteohub,2013-02-27 02:55:00,
2013-02-26 21:00:00,30.0,28.9,29.74,NNE,13,13.0,29.0,96,0.00,,,0.01,meteohub,2013-02-27 03:00:00,
2013-02-26 21:05:00,30.0,28.8,29.74,NNE,26,19.0,29.0,95,0.00,,,0.01,meteohub,2013-02-27 03:05:00,
2013-02-26 21:10:00,30.0,28.8,29.74,NNE,18,13.0,23.0,95,0.00,,,0.01,meteohub,2013-02-27 03:10:00,
2013-02-26 21:16:00,30.0,28.8,29.73,NNE,17,17.0,25.0,95,0.00,,,0.01,meteohub,2013-02-27 03:16:00,
2013-02-26 21:21:00,30.0,28.8,29.73,NNE,17,19.0,26.0,95,0.00,,,0.01,meteohub,2013-02-27 03:21:00,
2013-02-26 21:26:00,30.0,28.8,29.73,NNE,15,20.0,26.0,95,0.00,,,0.01,meteohub,2013-02-27 03:26:00,
2013-02-26 21:31:00,29.8,28.6,29.73,North,10,20.0,26.0,95,0.00,,,0.01,meteohub,2013-02-27 03:31:00,
2013-02-26 21:36:00,29.8,28.8,29.73,NNE,14,9.0,25.0,96,0.00,,,0.01,meteohub,2013-02-27 03:36:00,
2013-02-26 21:42:00,29.8,28.8,29.73,NNE,22,18.0,22.0,96,0.00,,,0.01,meteohub,2013-02-27 03:42:00,
2013-02-26 21:47:00,29.8,28.8,29.73,NE,34,23.0,23.0,96,0.00,,,0.01,meteohub,2013-02-27 03:47:00,
2013-02-26 21:52:00,29.8,28.8,29.73,NNE,26,13.0,26.0,96,0.00,,,0.01,meteohub,2013-02-27 03:52:00,
2013-02-26 21:57:00,29.7,28.6,29.73,NNE,15,11.0,26.0,96,0.00,,,0.01,meteohub,2013-02-27 03:57:00,
2013-02-26 22:02:00,29.7,28.6,29.73,NNE,28,16.0,26.0,96,0.00,,,0.01,meteohub,2013-02-27 04:02:00,
2013-02-26 22:07:00,29.7,28.6,29.73,North,11,15.0,21.0,96,0.00,,,0.01,meteohub,2013-02-27 04:07:00,
2013-02-26 22:12:00,29.7,28.6,29.73,NNE,25,14.0,24.0,96,0.00,,,0.01,meteohub,2013-02-27 04:12:00,
2013-02-26 22:17:00,29.5,28.4,29.72,NNE,19,12.0,24.0,96,0.00,,,0.01,meteohub,2013-02-27 04:17:00,
2013-02-26 22:22:00,29.5,28.4,29.72,North,5,20.0,24.0,96,0.00,,,0.01,meteohub,2013-02-27 04:22:00,
2013-02-26 22:27:00,29.5,28.4,29.72,NNE,19,14.0,23.0,96,0.00,,,0.01,meteohub,2013-02-27 04:27:00,
2013-02-26 22:32:00,29.5,28.4,29.72,North,5,19.0,23.0,96,0.00,,,0.01,meteohub,2013-02-27 04:32:00,
2013-02-26 22:37:00,29.5,28.4,29.71,NNE,12,17.0,23.0,96,0.00,,,0.01,meteohub,2013-02-27 04:37:00,
2013-02-26 22:42:00,29.5,28.4,29.71,North,5,18.0,23.0,96,0.00,,,0.01,meteohub,2013-02-27 04:42:00,
2013-02-26 22:47:00,29.5,28.4,29.71,North,5,14.0,23.0,96,0.00,,,0.01,meteohub,2013-02-27 04:47:00,
2013-02-26 22:52:00,29.5,28.4,29.71,NNW,344,18.0,22.0,96,0.00,,,0.01,meteohub,2013-02-27 04:52:00,
2013-02-26 22:58:00,29.3,28.2,29.71,North,10,16.0,24.0,96,0.00,,,0.01,meteohub,2013-02-27 04:58:00,
2013-02-26 23:00:00,29.3,28.2,29.71,NNE,15,12.0,24.0,96,0.00,,,0.01,meteohub,2013-02-27 05:00:00,
2013-02-26 23:01:00,29.1,28.0,29.71,North,5,21.0,24.0,96,0.00,,,0.01,meteohub,2013-02-27 05:01:00,
2013-02-26 23:06:00,28.9,27.9,29.71,North,0,20.0,24.0,96,0.00,,,0.01,meteohub,2013-02-27 05:06:00,
2013-02-26 23:12:00,28.9,27.9,29.70,NNE,17,13.0,22.0,96,0.00,,,0.01,meteohub,2013-02-27 05:12:00,
2013-02-26 23:17:00,28.9,27.9,29.70,NNE,19,19.0,22.0,96,0.00,,,0.01,meteohub,2013-02-27 05:17:00,
2013-02-26 23:22:00,28.8,27.7,29.70,North,9,14.0,22.0,96,0.00,,,0.01,meteohub,2013-02-27 05:22:00,
2013-02-26 23:27:00,28.8,27.7,29.70,NNE,30,13.0,22.0,96,0.00,,,0.01,meteohub,2013-02-27 05:27:00,
2013-02-26 23:32:00,28.8,27.7,29.70,North,9,19.0,22.0,96,0.00,,,0.01,meteohub,2013-02-27 05:32:00,
2013-02-26 23:37:00,28.8,27.7,29.70,NNE,15,18.0,24.0,96,0.00,,,0.01,meteohub,2013-02-27 05:37:00,
2013-02-26 23:42:00,28.8,27.7,29.70,NNE,15,13.0,24.0,96,0.00,,,0.01,meteohub,2013-02-27 05:42:00,
2013-02-26 23:47:00,28.9,27.9,29.70,NNE,18,14.0,24.0,96,0.00,,,0.01,meteohub,2013-02-27 05:47:00,
2013-02-26 23:52:00,28.9,27.9,29.70,North,5,14.0,22.0,96,0.00,,,0.01,meteohub,2013-02-27 05:52:00,
2013-02-26 23:57:00,28.9,27.9,29.70,NNE,15,15.0,21.0,96,0.00,,,0.01,meteohub,2013-02-27 05:57:00,